K6BPM Weather Reports


Display with metric or nautical units.
time (UTC)temp
F
wind
direction
speed
MPH
gust
MPH
rain 1hr
in
rain 24hr
in
rain mn
in
humidity
%
barometer
mb
20220528002022 68 0.0 5.0 0.00 0.02 0.02 68 1014.7
20220528001022 69 270 1.0 6.0 0.00 0.02 0.02 68 1014.8
20220528000021 70 0.0 6.0 0.00 0.02 0.02 68 1014.9
20220527234021 69 270 1.0 7.0 0.00 0.02 0.02 69 1015.3
20220527233021 69 0.0 5.0 0.00 0.02 0.02 69 1015.4
20220527224017 69 0.0 4.0 0.00 0.02 0.02 69 1015.9
20220527223021 69 0.0 5.0 0.00 0.02 0.02 69 1015.8
20220527221022 68 0.0 5.0 0.00 0.02 0.02 70 1016.0
20220527215022 68 0.0 4.0 0.00 0.02 0.02 69 1016.2
20220527213017 66 117 0.0 0.0 0.00 0.02 0.02 69 1016.4
20220527211021 66 117 0.0 0.0 0.00 0.02 0.02 67 1016.7
20220527210021 65 117 0.0 0.0 0.00 0.02 0.02 68 1016.7
20220527204022 64 117 0.0 0.0 0.00 0.02 0.02 64 1017.0
20220527203016 64 117 0.0 0.0 0.00 0.02 0.02 63 1017.1
20220527201021 63 117 0.0 0.0 0.00 0.02 0.02 62 1017.2
20220527200022 63 117 0.0 0.0 0.00 0.02 0.02 60 1017.3
20220527195021 63 117 0.0 0.0 0.00 0.02 0.02 61 1017.3
20220527194022 63 117 0.0 0.0 0.00 0.02 0.02 58 1017.4
20220527193021 63 117 0.0 0.0 0.00 0.02 0.02 55 1017.3
20220527190027 61 117 0.0 0.0 0.00 0.02 0.02 36 1017.3
20220527185026 61 117 0.0 0.0 0.00 0.02 0.02 34 1017.3
20220527184019 60 117 0.0 0.0 0.00 0.02 0.02 33 1017.3
20220527183021 60 117 0.0 0.0 0.00 0.02 0.02 33 1017.3
20220527182016 59 117 0.0 0.0 0.00 0.02 0.02 33 1017.1
20220527180021 59 117 0.0 0.0 0.00 0.02 0.02 33 1017.1
20220527175021 59 117 0.0 0.0 0.00 0.02 0.02 33 1017.3
20220527173021 58 117 0.0 0.0 0.00 0.02 0.02 33 1017.2
20220527172021 58 117 0.0 0.0 0.00 0.02 0.02 33 1017.1
20220527171015 58 117 0.0 0.0 0.00 0.02 0.02 33 1017.1
20220527163021 58 117 0.0 0.0 0.00 0.03 0.02 33 1016.9
20220527162020 58 117 0.0 0.0 0.00 0.03 0.02 33 1016.8
20220527161016 58 117 0.0 0.0 0.00 0.03 0.02 33 1016.8
20220527160021 58 117 0.0 0.0 0.00 0.03 0.02 33 1016.7
20220527154021 58 117 0.0 0.0 0.01 0.03 0.02 33 1016.7
20220527152021 58 117 0.0 0.0 0.01 0.03 0.02 33 1016.6
20220527144020 58 117 0.0 0.0 0.01 0.02 0.01 34 1016.5
20220527143020 58 117 0.0 0.0 0.01 0.02 0.01 34 1016.5
20220527141020 58 117 0.0 0.0 0.01 0.02 0.01 34 1016.2
20220527134020 58 117 0.0 0.0 0.00 0.02 0.00 34 1016.0
20220527133020 58 117 0.0 0.0 0.00 0.02 0.00 34 1016.0
20220527132020 58 117 0.0 0.0 0.00 0.02 0.00 34 1015.9
20220527131020 58 117 0.0 0.0 0.00 0.02 0.00 34 1015.8
20220527130020 58 117 0.0 0.0 0.00 0.02 0.00 34 1015.8
20220527125016 58 117 0.0 0.0 0.00 0.02 0.00 34 1015.7
20220527123020 58 117 0.0 0.0 0.00 0.02 0.00 34 1015.5
20220527122020 58 117 0.0 0.0 0.00 0.02 0.00 34 1015.3
20220527121021 58 117 0.0 0.0 0.00 0.02 0.00 34 1015.1
20220527115022 58 117 0.0 0.0 0.00 0.02 0.00 35 1014.9
20220527113023 58 117 0.0 0.0 0.00 0.03 0.00 35 1014.9
20220527110022 58 117 0.0 0.0 0.00 0.03 0.00 35 1014.8
20220527104022 58 117 0.0 0.0 0.00 0.03 0.00 35 1014.8
20220527101023 59 117 0.0 0.0 0.00 0.03 0.00 36 1014.9
20220527100023 59 117 0.0 0.0 0.00 0.03 0.00 36 1014.9
20220527093022 59 117 0.0 0.0 0.00 0.03 0.00 36 1015.2
20220527092022 59 117 0.0 0.0 0.00 0.04 0.00 36 1015.3
20220527090022 59 117 0.0 0.0 0.00 0.04 0.00 36 1015.3
20220527085022 59 117 0.0 0.0 0.00 0.04 0.00 36 1015.3
20220527084017 59 117 0.0 0.0 0.00 0.04 0.00 36 1015.4
20220527083022 59 117 0.0 0.0 0.00 0.04 0.00 36 1015.6
20220527081022 59 117 0.0 0.0 0.00 0.04 0.00 37 1015.5
20220527075022 59 117 0.0 0.0 0.00 0.04 0.00 37 1015.6
20220527074023 59 117 0.0 0.0 0.00 0.04 0.00 37 1015.5
20220527072022 59 117 0.0 0.0 0.00 0.04 0.00 38 1015.5
20220527063022 60 117 0.0 0.0 0.00 0.04 0.04 40 1015.7
20220527062017 60 117 0.0 0.0 0.00 0.04 0.04 40 1015.7
20220527055022 60 117 0.0 0.0 0.00 0.04 0.04 40 1015.8
20220527054022 60 117 0.0 0.0 0.00 0.04 0.04 40 1015.8
20220527053022 60 117 0.0 0.0 0.00 0.04 0.04 40 1015.8
20220527051022 60 117 0.0 0.0 0.00 0.04 0.04 40 1015.8
20220527050022 60 117 0.0 0.0 0.00 0.04 0.04 41 1015.6
20220527043022 60 117 0.0 0.0 0.00 0.04 0.04 42 1015.3
20220527042022 60 117 0.0 0.0 0.00 0.04 0.04 43 1015.0
20220527040022 60 117 0.0 0.0 0.00 0.04 0.04 44 1014.9
20220527033021 60 117 0.0 0.0 0.00 0.04 0.04 45 1014.5
20220527032022 60 117 0.0 0.0 0.00 0.04 0.04 45 1014.9
20220527031021 60 117 0.0 0.0 0.00 0.04 0.04 46 1014.9
20220527030022 61 117 0.0 0.0 0.00 0.04 0.04 46 1015.0
20220527024022 61 117 0.0 0.0 0.00 0.04 0.04 47 1014.7
20220527022021 61 117 0.0 0.0 0.00 0.04 0.04 48 1014.5
20220527021022 61 117 0.0 0.0 0.00 0.04 0.04 48 1014.5
20220527015022 62 117 0.0 0.0 0.00 0.04 0.04 50 1014.2
20220527014021 62 117 0.0 0.0 0.00 0.04 0.04 48 1014.2
20220527013021 62 117 0.0 0.0 0.00 0.04 0.04 45 1014.1
20220527012021 62 117 0.0 0.0 0.00 0.04 0.04 43 1014.1
20220527003021 62 117 0.0 0.0 0.00 0.04 0.04 32 1013.9